Weather History for KSZL - March, 2014

Change the Weather History Date:

Monday, March 3, 2014

  Actual Average Record
Temperature  
Mean Temperature 9 °F -  
Max Temperature 21 °F 45 °F 64 °F (2011)
Min Temperature -3 °F 27 °F -3 °F (2014)
Degree Days  
Heating Degree Days 56    
Moisture  
Dew Point 0 °F    
Average Humidity 64    
Maximum Humidity 74    
Minimum Humidity 56    
Precipitation  
Precipitation 0.00 in - - ()
Snow  
Snow 0.00 in - - ()
Snow Depth 1.00 in    
Sea Level Pressure  
Sea Level Pressure 30.50 in    
Wind  
Wind Speed 10 mph (NNE)    
Max Wind Speed 18 mph    
Max Gust Speed -    
Visibility 10 miles    
Events      
Averages and records for this station are not official NWS values.
T = Trace of Precipitation, MM = Missing Value Source: NWS Daily Summary

Daily Weather History Graph

Daily Weather History Graph

Search for Another Location

Airport or City:

Trip Planner

Search our weather history database for the weather conditions in past years. The results will help you decide how hot, cold, wet, or windy it might be!

Date:

Astronomy

Mar. 03, 2014 Rise Set
Actual Time 6:43 AM CST 6:09 PM CST
Civil Twilight 6:16 AM CST 6:35 PM CST
Nautical Twilight 5:46 AM CST 7:06 PM CST
Astronomical Twilight 5:15 AM CST 7:37 PM CST
Moon 7:54 AM CST (3/3) 9:10 PM CST (3/3)
Length of Visible Light 12h 18m
Length of Day
11h 25m
Waxing Crescent, 8% of the Moon is Illuminated
Mar 3
Waxing Crescent
Mar 8
First Quarter
Mar 16
Full
Mar 23
Last Quarter
Mar 30
New

Hourly Weather History & Observations

Time (CST) Temp. Windchill Dew Point Humidity Pressure Visibility Wind Dir Wind Speed Gust Speed Precip Events Conditions
12:58 AM 2.1 °F -18.5 °F -9.6 °F 58% 30.55 in 10.0 mi North 18.4 mph - N/A   Clear
1:58 AM 1.4 °F -18.2 °F -9.8 °F 60% 30.57 in 10.0 mi North 16.1 mph - N/A   Scattered Clouds
2:58 AM 0.3 °F -19.0 °F -10.5 °F 60% 30.57 in 10.0 mi North 15.0 mph - N/A   Partly Cloudy
3:58 AM -1.5 °F -19.0 °F -10.5 °F 66% 30.59 in 10.0 mi North 11.5 mph - N/A   Clear
4:58 AM -2.0 °F -18.7 °F -10.8 °F 66% 30.60 in 10.0 mi North 10.4 mph - N/A   Partly Cloudy
5:58 AM -2.7 °F -19.6 °F -11.2 °F 67% 30.60 in 10.0 mi North 10.4 mph - N/A   Clear
6:58 AM -3.1 °F -16.7 °F -10.8 °F 70% 30.59 in 10.0 mi North 6.9 mph - N/A   Clear
7:58 AM -1.1 °F -18.5 °F -9.8 °F 67% 30.59 in 10.0 mi NNE 11.5 mph - N/A   Clear
8:58 AM 2.3 °F -11.4 °F -6.9 °F 66% 30.58 in 10.0 mi NE 8.1 mph - N/A   Clear
9:58 AM 5.7 °F -6.1 °F -3.6 °F 65% 30.58 in 10.0 mi NNE 6.9 mph - N/A   Clear
10:58 AM 9.0 °F - -1.5 °F 63% 30.58 in 10.0 mi Variable 2.3 mph - N/A   Clear
11:58 AM 12.9 °F - 2.1 °F 62% 30.58 in 10.0 mi NE 2.3 mph - N/A   Partly Cloudy
12:58 PM 14.9 °F 7.5 °F 2.1 °F 57% 30.55 in 10.0 mi NE 4.6 mph - N/A   Partly Cloudy
1:58 PM 16.2 °F - 4.1 °F 59% 30.51 in 10.0 mi Variable 1.2 mph - N/A   Scattered Clouds
2:58 PM 18.9 °F 13.7 °F 6.8 °F 59% 30.48 in 10.0 mi NNE 3.5 mph - N/A   Mostly Cloudy
3:58 PM 20.5 °F - 7.2 °F 56% 30.45 in 10.0 mi Variable 2.3 mph - N/A   Scattered Clouds
4:58 PM 21.7 °F 14.3 °F 9.9 °F 60% 30.43 in 10.0 mi NE 5.8 mph - N/A   Scattered Clouds
5:58 PM 19.4 °F 14.3 °F 9.9 °F 66% 30.42 in 10.0 mi NE 3.5 mph - N/A   Scattered Clouds
6:58 PM 16.7 °F - 9.9 °F 74% 30.42 in 10.0 mi NE 2.3 mph - N/A   Scattered Clouds
7:58 PM 16.3 °F 9.2 °F 8.8 °F 72% 30.41 in 10.0 mi NNW 4.6 mph - N/A   Scattered Clouds
8:58 PM 18.3 °F 11.5 °F 7.7 °F 63% 30.36 in 10.0 mi SE 4.6 mph - N/A   Scattered Clouds
9:58 PM 19.0 °F 11.1 °F 5.7 °F 56% 30.35 in 10.0 mi SSE 5.8 mph - N/A   Scattered Clouds
10:58 PM 15.4 °F 5.6 °F 8.2 °F 73% 30.34 in 10.0 mi South 6.9 mph - N/A   Scattered Clouds
11:58 PM 16.3 °F 10.8 °F 6.8 °F 66% 30.35 in 10.0 mi NNW 3.5 mph - N/A   Partly Cloudy